Date String (YYYY-MM-DD hh:mm:ss) UTC,Instrument flags,Ambient pressure (hPa),Sample flow (lpm),Bypass flow (lpm),Sample temperature (°C),Ambient temperature (°C),ASC tube jacket temperature (°C),LED temperature (°C),Box temperature (°C),Sample RH (%),Span deviation,Mass concentration (μg/m³),Mass concentration (μg/m³),Mass concentration (μg/m³)
DateTimeUTC,F1_M11,P_M11,Q1_M11,Q2_M11,T1_M11,T2_M11,T3_M11,T4_M11,T5_M11,U1_M11,ZSPAN_M11,X0_M11,X2_M11,X1_M11
2021-11-21 04:00:00,,0831.4,5.02,0.00,25.4,24.5,00.0,34.5,27.1,18.8,0000.0,0011.23,0005.44,0004.50
2021-11-21 04:01:00,,0831.4,4.99,0.00,25.3,24.5,00.0,34.5,27.1,18.8,-000.6,0011.20,0005.45,0004.50
2021-11-21 04:02:00,,0831.4,4.99,0.00,25.3,24.5,00.0,34.5,27.1,18.9,-001.2,0011.19,0005.43,0004.50
2021-11-21 04:03:00,,0831.5,5.00,0.00,25.3,24.4,00.0,34.5,27.1,18.9,-001.3,0010.81,0005.39,0004.47
2021-11-21 04:04:00,,0831.4,5.01,0.00,25.3,24.5,00.0,34.5,27.1,18.8,-000.8,0009.73,0005.34,0004.47
2021-11-21 04:05:00,,0831.4,4.99,0.00,25.3,24.5,00.0,34.5,27.1,18.8,0000.0,0009.58,0005.35,0004.46
2021-11-21 04:06:00,,0831.4,5.00,0.00,25.3,24.5,00.0,34.4,27.1,18.8,0000.0,0010.42,0005.32,0004.43
2021-11-21 04:07:00,,0831.5,5.00,0.00,25.3,24.6,00.0,34.4,27.1,18.8,0000.0,0010.58,0005.24,0004.39
2021-11-21 04:08:00,,0831.5,4.99,0.00,25.3,24.6,00.0,34.4,27.1,18.9,0000.0,0010.69,0005.17,0004.35
2021-11-21 04:09:00,,0831.5,5.01,0.00,25.3,24.6,00.0,34.4,27.2,19.0,0000.0,0010.82,0005.18,0004.33
2021-11-21 04:10:00,,0831.5,5.01,0.00,25.4,24.6,00.0,34.4,27.2,19.0,0000.0,0011.05,0005.21,0004.31
2021-11-21 04:11:00,,0831.6,4.99,0.00,25.4,24.6,00.0,34.4,27.2,19.0,0000.0,0011.21,0005.25,0004.31
2021-11-21 04:12:00,,0831.7,5.01,0.00,25.4,24.7,00.0,34.4,27.2,18.9,0000.0,0011.35,0005.25,0004.32
2021-11-21 04:13:00,,0831.7,5.00,0.00,25.4,24.7,00.0,34.4,27.3,18.9,0000.0,0011.39,0005.24,0004.32
2021-11-21 04:14:00,,0831.7,5.00,0.00,25.4,24.7,00.0,34.4,27.3,18.9,0000.0,0011.42,0005.26,0004.33
2021-11-21 04:15:00,,0831.7,5.00,0.00,25.4,24.7,00.0,34.4,27.2,18.9,0000.0,0011.65,0005.31,0004.32
2021-11-21 04:16:00,,0831.7,4.99,0.00,25.4,24.7,00.0,34.4,27.2,18.9,0000.0,0011.86,0005.34,0004.32
2021-11-21 04:17:00,,0831.7,5.01,0.00,25.4,24.7,00.0,34.4,27.3,18.9,0000.0,0011.25,0005.39,0004.32
2021-11-21 04:18:00,,0831.7,4.99,0.00,25.4,24.7,00.0,34.4,27.3,18.9,0000.0,0010.95,0005.43,0004.34
2021-11-21 04:19:00,,0831.7,4.99,0.00,25.4,24.7,00.0,34.4,27.3,18.9,0000.0,0010.51,0005.40,0004.35
2021-11-21 04:20:00,,0831.7,5.01,0.00,25.5,24.7,00.0,34.4,27.3,18.8,0000.0,0010.19,0005.38,0004.36
2021-11-21 04:21:00,,0831.7,4.99,0.00,25.5,24.7,00.0,34.4,27.3,18.7,0000.0,0010.23,0005.35,0004.36
2021-11-21 04:22:00,,0831.8,5.01,0.00,25.5,24.7,00.0,34.4,27.3,18.7,0000.4,0010.25,0005.31,0004.36
2021-11-21 04:23:00,,0831.7,5.00,0.00,25.5,24.7,00.0,34.5,27.3,18.6,0001.0,0010.51,0005.34,0004.35
2021-11-21 04:24:00,,0831.7,4.99,0.00,25.5,24.7,00.0,34.5,27.3,18.6,0001.3,0011.02,0005.31,0004.35
2021-11-21 04:25:00,,0831.6,5.00,0.00,25.4,24.7,00.0,34.5,27.3,18.6,0000.7,0010.93,0005.30,0004.34
2021-11-21 04:26:00,,0831.7,5.01,0.00,25.4,24.6,00.0,34.5,27.2,18.5,0000.0,0010.84,0005.26,0004.34
2021-11-21 04:27:00,,0831.7,4.99,0.00,25.4,24.6,00.0,34.4,27.2,18.5,0000.0,0011.35,0005.24,0004.36
2021-11-21 04:28:00,,0831.7,5.01,0.00,25.4,24.6,00.0,34.4,27.2,18.5,0000.0,0011.38,0005.24,0004.38
2021-11-21 04:29:00,,0831.7,5.00,0.00,25.4,24.5,00.0,34.4,27.1,18.6,0000.4,0011.55,0005.24,0004.40
2021-11-21 04:30:00,,0831.6,5.00,0.00,25.3,24.5,00.0,34.4,27.1,18.6,0000.1,0011.67,0005.30,0004.42
2021-11-21 04:31:00,,0831.7,5.00,0.00,25.3,24.5,00.0,34.4,27.1,18.6,0000.1,0011.87,0005.34,0004.44
2021-11-21 04:32:00,,0831.7,5.00,0.00,25.3,24.5,00.0,34.4,27.1,18.6,0000.0,0012.25,0005.41,0004.46
2021-11-21 04:33:00,,0831.6,5.00,0.00,25.3,24.5,00.0,34.4,27.1,18.6,0000.0,0012.21,0005.45,0004.47
2021-11-21 04:34:00,,0831.7,5.00,0.00,25.3,24.5,00.0,34.4,27.1,18.6,0000.0,0012.32,0005.42,0004.48
2021-11-21 04:35:00,,0831.7,5.00,0.00,25.3,24.5,00.0,34.4,27.1,18.6,0000.0,0011.62,0005.45,0004.48
2021-11-21 04:36:00,,0831.7,5.00,0.00,25.3,24.6,00.0,34.4,27.2,18.7,0000.0,0011.65,0005.48,0004.52
2021-11-21 04:37:00,,0831.7,5.01,0.00,25.3,24.6,00.0,34.4,27.2,18.7,0000.0,0011.90,0005.47,0004.54
2021-11-21 04:38:00,,0831.7,5.00,0.00,25.3,24.6,00.0,34.4,27.2,18.7,0000.0,0011.16,0005.46,0004.55
2021-11-21 04:39:00,,0831.8,5.01,0.00,25.3,24.6,00.0,34.4,27.2,18.8,0000.0,0011.05,0005.44,0004.56
2021-11-21 04:40:00,,0831.7,4.99,0.00,25.3,24.6,00.0,34.4,27.1,18.8,0000.0,0011.03,0005.43,0004.56
2021-11-21 04:41:00,,0831.7,5.01,0.00,25.3,24.6,00.0,34.4,27.1,18.8,0000.0,0011.11,0005.42,0004.57
2021-11-21 04:42:00,,0831.8,4.99,0.00,25.3,24.6,00.0,34.4,27.2,18.9,0000.0,0010.99,0005.44,0004.58
2021-11-21 04:43:00,,0831.8,5.01,0.00,25.3,24.6,00.0,34.4,27.1,18.9,0000.0,0010.61,0005.46,0004.62
2021-11-21 04:44:00,,0831.9,4.99,0.00,25.3,24.6,00.0,34.4,27.2,18.9,0000.0,0010.68,0005.49,0004.64
2021-11-21 04:45:00,,0831.9,5.00,0.00,25.3,24.6,00.0,34.4,27.2,18.9,0000.0,0010.50,0005.50,0004.64
2021-11-21 04:46:00,,0831.8,5.00,0.00,25.3,24.6,00.0,34.4,27.1,18.8,0000.0,0010.72,0005.49,0004.66
2021-11-21 04:47:00,,0831.8,4.99,0.00,25.3,24.6,00.0,34.4,27.2,18.7,0000.0,0011.39,0005.48,0004.66
2021-11-21 04:48:00,,0831.7,5.00,0.00,25.3,24.6,00.0,34.4,27.1,18.7,0000.0,0011.28,0005.54,0004.66
2021-11-21 04:49:00,,0831.7,5.00,0.00,25.3,24.5,00.0,34.4,27.1,18.5,0000.0,0011.19,0005.56,0004.65
2021-11-21 04:50:00,,0831.8,4.99,0.00,25.3,24.5,00.0,34.4,27.1,18.5,0000.0,0011.90,0005.56,0004.63
2021-11-21 04:51:00,,0831.7,5.01,0.00,25.3,24.4,00.0,34.3,27.1,18.5,0000.0,0012.61,0005.50,0004.61
2021-11-21 04:52:00,,0831.7,5.00,0.00,25.2,24.4,00.0,34.3,27.0,18.7,0000.0,0013.84,0005.49,0004.60
2021-11-21 04:53:00,,0831.8,5.00,0.00,25.2,24.4,00.0,34.3,27.0,18.6,0000.0,0014.94,0005.49,0004.58
2021-11-21 04:54:00,,0831.8,5.01,0.00,25.2,24.4,00.0,34.3,27.0,18.6,0000.0,0014.76,0005.43,0004.53
2021-11-21 04:55:00,,0831.7,5.00,0.00,25.2,24.4,00.0,34.3,27.0,18.6,0000.0,0014.70,0005.40,0004.49
2021-11-21 04:56:00,,0831.7,4.99,0.00,25.2,24.4,00.0,34.3,27.0,18.6,0000.0,0014.64,0005.41,0004.50
2021-11-21 04:57:00,,0831.7,5.01,0.00,25.2,24.4,00.0,34.3,27.0,18.7,0000.0,0014.47,0005.43,0004.50
2021-11-21 04:58:00,,0831.7,4.99,0.00,25.2,24.4,00.0,34.3,27.0,18.7,0000.0,0014.11,0005.44,0004.49
2021-11-21 04:59:00,,0831.7,5.00,0.00,25.2,24.4,00.0,34.3,27.0,18.7,0000.0,0014.31,0005.44,0004.48
